Wind_Gust
12 9 12 14 17 17 13 16 17 12 9 7 6 7 9 9 6 5 5 11 16 15 15 16 14 13 13 15 17 17 15 15 14 14 12 10 12 12 11 14 14 13 18 9 11 11 11 10 8 8 7 8 6 7 8 7 6 8 9 7 6 5 4 5 3 2 2 3 6 2 3 5 5 5 3 4 5 5 5 5 7 6 4 5 5 4
12 9 19 22 20 16 16 15 12 7 6 7 8 5 11 7 6 9 11 11 15 19 9 6 12 12 15 14 15 13 15 18 19 16 13 12 11 13 13 13 14 15 6 8 6 5 6 7 7 7 8 7 8 5 6 8 9 8 7 8 8 3 4 5 5 6 3 4 5 3 4 2 4 5 5 4 7 5 6 6 6 7 3 5 4 4
10 20 25 27 25 11 6 8 12 15 10 7 8 8 10 11 9 6 4 12 13 13 13 9 12 15 14 12 9 17 21 22 20 18 18 16 14 14 15 13 12 9 10 8 11 8 9 9 9 9 8 8 10 10 10 8 6 5 7 6 6 6 6 6 5 5 3 4 4 4 3 4 5 3 3 4 6 5 5 6 5 6 4 4 4 5
8 17 29 30 21 14 9 10 9 8 6 10 7 7 14 14 9 5 3 12 8 15 15 12 13 11 8 6 10 17 22 18 16 17 17 20 20 19 20 18 16 14 15 14 13 12 10 10 9 7 8 9 6 7 6 6 7 7 7 5 5 6 6 5 5 5 4 3 2 2 2 4 1 3 5 5 5 4 5 6 6 3 6 3 5 3
26 24 22 14 20 19 17 12 12 11 11 5 11 8 8 6 11 12 10 10 4 7 14 10 8 11 6 5 7 9 10 14 10 9 10 8 16 16 13 13 18 19 17 16 12 10 10 8 11 13 10 7 8 8 9 8 8 8 9 8 8 7 7 6 5 4 4 3 3 3 3 5 5 4 7 6 7 5 4 5 5 4 4 6 3 4
20 29 12 21 24 20 15 9 14 15 9 5 12 15 15 13 12 7 8 12 9 9 9 18 9 11 9 7 12 9 7 12 11 14 12 13 13 13 14 13 8 13 14 19 17 16 15 15 10 5 6 8 8 9 9 10 9 7 7 6 6 5 5 6 5 5 5 4 4 1 5 7 6 7 8 4 4 7 7 5 4 5 4 5 4 4
23 11 18 22 18 15 17 14 8 15 13 8 15 16 14 12 10 10 11 12 7 14 11 7 15 12 10 7 8 7 7 10 8 15 12 14 15 13 15 13 14 14 11 8 12 11 11 9 9 8 9 10 10 10 8 7 7 7 8 7 7 7 6 5 5 4 5 4 3 4 4 4 4 2 7 5 5 5 8 6 6 5 5 4 5 4
5 13 16 15 16 19 7 12 12 18 17 14 19 20 20 17 14 14 15 12 11 4 7 7 10 12 9 13 6 6 13 11 7 9 11 13 13 12 12 14 13 14 13 14 13 13 13 13 14 14 13 12 14 10 7 7 6 7 8 7 7 6 6 6 5 5 6 6 4 2 3 4 5 5 7 7 7 5 6 6 7 5 5 5 4 4
5 9 12 13 9 8 13 16 12 19 21 16 11 19 21 24 14 12 14 9 5 11 7 8 5 14 8 11 7 8 14 7 11 11 13 12 11 13 14 15 14 14 14 14 14 12 14 15 14 13 13 11 8 9 11 9 9 8 7 8 5 6 6 5 5 7 5 5 6 6 4 3 6 5 7 6 6 5 5 6 6 6 6 6 5 4
10 11 19 22 19 14 13 10 21 20 17 12 18 17 15 14 11 11 13 10 4 10 9 11 8 13 15 11 6 4 10 15 16 17 16 15 18 16 16 13 12 9 9 9 12 13 12 15 15 13 11 8 9 10 8 6 7 7 6 7 6 6 6 5 5 7 6 5 4 4 4 4 7 3 5 3 5 5 5 5 6 6 8 7 6 6
12 11 11 17 20 19 12 9 14 20 16 13 18 15 14 15 9 7 12 10 11 5 13 11 6 13 11 11 13 17 21 20 12 8 8 7 9 15 14 16 14 12 11 10 8 8 10 10 9 9 12 10 6 7 7 8 9 7 8 7 7 8 7 5 7 6 7 5 4 6 5 5 5 6 4 6 7 5 4 5 7 6 8 6 7 6
8 5 7 10 7 10 9 10 9 8 9 19 16 13 14 10 14 13 9 11 9 12 11 8 11 7 11 12 12 16 7 14 21 17 17 15 17 19 14 13 13 12 11 10 8 7 7 6 6 9 10 10 9 7 8 8 7 8 8 8 7 6 6 5 6 5 6 5 6 5 5 5 6 5 5 4 5 5 5 5 7 6 6 7 7 5
7 6 7 9 8 15 9 15 13 10 9 15 16 16 16 6 13 6 10 8 12 12 6 5 11 6 12 19 14 14 15 11 16 21 24 22 20 16 14 13 11 12 11 11 9 10 8 11 11 10 10 9 8 10 10 9 7 6 6 7 7 7 6 6 5 6 6 4 6 7 6 6 5 5 5 5 5 5 5 7 5 5 7 7 7 7
13 10 7 7 10 5 15 18 9 10 6 17 19 14 14 8 4 5 7 7 11 12 9 6 4 9 11 15 12 15 17 19 19 16 20 22 22 19 17 13 12 11 13 12 12 11 11 12 12 11 11 10 10 9 10 7 7 7 6 6 7 9 7 6 5 6 5 6 6 6 6 7 5 6 5 6 5 6 6 7 6 7 8 8 8 7
6 15 12 6 10 8 10 16 24 18 17 18 13 22 17 19 17 10 11 13 14 13 8 4 8 13 7 9 8 15 15 13 12 14 15 19 20 17 13 13 12 12 9 12 11 11 11 11 11 12 11 10 10 9 9 7 8 7 6 6 7 7 6 5 6 5 5 7 6 6 6 6 5 7 7 7 7 6 5 6 6 7 6 8 9 9
8 14 17 10 6 6 11 6 11 11 12 6 10 12 14 14 15 9 17 12 9 9 7 7 12 8 13 9 8 10 11 9 10 9 11 11 10 13 15 17 15 13 12 11 10 8 8 9 9 9 9 9 9 10 9 10 9 7 9 8 8 10 9 7 6 6 7 8 7 5 6 8 7 7 6 6 5 7 6 6 7 7 6 9 8 8
8 7 7 13 7 6 9 9 6 14 22 11 9 15 14 9 19 14 4 3 7 13 10 6 14 12 15 10 8 7 12 10 10 10 12 15 16 18 18 16 14 14 14 12 12 10 8 6 6 10 9 9 8 9 10 11 11 11 11 8 8 8 6 7 7 8 7 7 5 6 7 7 5 7 7 9 7 8 6 6 7 7 8 6 7 9
12 13 8 5 7 9 4 4 8 6 13 20 12 17 7 8 13 15 9 8 10 9 13 4 10 10 15 16 9 5 13 10 11 10 13 14 17 19 16 16 17 16 15 13 10 9 10 11 11 9 8 9 11 11 10 11 11 11 11 10 10 8 10 9 8 8 7 6 7 7 7 7 8 8 8 7 8 8 6 7 7 6 7 9 9 7
10 11 11 4 6 10 8 10 12 4 4 12 13 12 17 10 6 10 17 7 7 7 9 6 4 13 13 14 11 11 16 12 8 11 15 16 17 17 15 14 13 12 11 11 10 10 10 11 10 10 10 9 10 11 12 12 11 10 8 9 11 12 13 12 11 9 8 8 8 8 9 8 9 8 8 7 7 6 6 8 8 8 10 8 7 7
9 11 15 8 4 5 7 12 9 6 11 6 8 9 3 13 8 9 12 11 18 7 8 9 6 18 17 18 23 20 16 16 10 13 16 20 19 19 17 16 17 15 14 13 12 11 12 12 11 11 11 10 10 9 9 9 8 10 11 9 9 8 6 6 8 8 9 10 9 9 7 7 8 8 8 8 6 7 8 9 8 8 7 11 9 8
8 7 8 12 8 8 10 7 12 14 9 7 15 8 12 9 6 11 6 4 8 17 13 16 12 17 17 14 14 19 18 19 22 19 15 15 15 16 17 19 17 16 15 14 14 13 12 12 10 10 10 10 9 8 8 8 11 13 9 9 9 11 9 8 10 8 11 8 9 8 9 10 9 10 10 8 6 7 9 8 8 8 10 8 8 8
10 6 8 8 8 4 12 12 11 13 13 13 15 11 16 11 7 4 7 10 9 13 16 17 17 18 20 9 21 22 20 17 15 20 16 12 14 17 17 16 18 16 13 14 13 11 12 10 10 9 9 7 7 8 8 10 8 7 9 12 11 9 8 9 9 9 10 8 9 9 10 10 8 9 7 7 7 8 9 9 9 10 7 6 10 6
12 11 13 5 4 4 5 8 4 7 10 9 13 5 8 8 15 13 8 7 8 7 10 9 15 12 11 6 16 22 17 15 14 16 16 14 14 15 18 18 16 19 18 16 14 14 13 12 12 13 13 11 12 12 12 10 10 10 9 9 8 9 10 9 11 9 9 8 9 10 10 8 8 8 7 8 8 8 10 10 9 8 8 9 10 8
11 11 8 8 12 11 9 7 8 7 11 10 8 5 5 5 6 14 11 12 13 4 10 6 12 16 12 6 9 11 14 11 13 16 17 12 12 15 16 15 16 13 12 13 12 12 14 12 10 9 10 12 11 10 12 13 11 10 9 10 9 10 11 9 9 9 8 8 9 9 7 9 10 8 9 9 11 9 10 10 9 9 8 9 9 11
15 8 14 7 10 13 14 15 15 12 14 9 4 3 3 7 9 6 13 5 12 9 10 15 12 11 10 7 6 15 15 16 13 10 17 17 11 14 15 16 15 14 13 12 13 14 12 10 12 14 14 14 14 13 13 12 12 10 12 10 11 13 12 10 10 9 10 10 11 10 10 10 10 10 10 11 10 10 10 9 10 9 8 10 11 9
14 7 13 11 12 11 10 6 11 6 5 6 3 2 4 7 9 5 4 8 9 4 7 10 12 17 14 6 6 13 15 14 15 18 11 20 21 17 13 14 14 15 16 15 14 12 15 17 16 13 12 14 14 15 14 12 12 12 11 13 12 13 12 13 10 12 12 11 12 11 11 13 10 11 12 12 10 10 9 10 9 10 10 8 11 11
12 6 9 14 18 21 17 13 11 6 5 6 3 4 3 5 8 13 12 11 10 8 10 13 15 8 5 5 7 11 16 17 15 11 16 12 9 10 12 15 16 17 17 17 17 19 14 11 15 16 15 15 14 13 14 13 13 12 11 11 10 12 14 14 10 10 10 9 11 11 13 13 14 10 8 9 8 9 11 12 10 11 11 9 10 11
9 7 3 12 9 16 12 9 7 7 6 4 6 5 3 5 7 11 9 8 10 16 7 12 8 12 14 8 7 13 14 18 18 19 15 12 14 18 16 14 11 13 11 13 13 15 17 17 16 14 13 12 12 13 13 13 14 14 13 14 12 11 9 9 9 8 7 9 10 11 11 7 7 9 10 10 11 11 11 11 11 10 8 9 11 11
10 8 4 4 3 5 7 5 6 5 7 11 11 9 8 7 7 7 7 6 11 9 16 7 8 11 12 12 14 21 20 21 23 23 25 23 17 9 10 13 15 16 15 14 17 18 17 17 16 15 13 14 10 11 13 14 14 11 9 9 10 7 11 8 7 8 7 7 8 8 8 9 10 11 11 10 11 11 11 11 9 9 10 10 10 12
14 4 5 3 3 6 7 5 3 5 4 5 4 7 8 11 11 9 6 7 12 7 11 10 12 17 15 14 15 21 17 20 21 12 8 11 15 16 15 15 17 17 18 19 18 18 17 17 16 15 15 11 12 14 14 13 13 13 13 13 12 10 10 9 8 9 7 9 9 9 11 12 10 11 11 13 12 10 10 10 10 11 11 11 10 11
12 9 5 4 7 7 8 9 5 4 7 6 9 4 3 5 6 4 5 5 5 6 2 4 5 12 17 12 11 6 5 5 13 13 17 18 16 17 17 17 17 19 19 20 19 19 18 17 15 14 14 15 15 16 17 16 16 14 12 13 11 12 10 9 9 8 11 10 10 11 12 13 11 11 13 10 11 10 11 11 11 12 11 11 12 12
11 5 5 6 5 10 9 8 9 5 6 8 9 7 5 7 7 7 11 12 9 9 6 6 5 12 13 4 3 8 11 15 18 16 16 16 17 17 17 17 18 19 20 20 20 18 17 16 15 15 17 18 17 16 15 16 15 12 15 13 13 11 10 11 13 15 13 13 12 12 13 13 12 12 11 11 11 11 10 11 12 12 12 14 14 12
7 14 9 5 8 8 13 4 7 8 10 14 12 13 16 10 4 4 5 5 12 15 13 9 15 17 13 6 12 7 10 14 15 17 16 14 15 18 20 19 20 20 21 22 19 18 19 19 19 20 19 17 19 18 19 18 14 16 17 14 8 12 14 15 17 16 14 12 14 13 13 13 14 13 12 11 11 10 12 13 13 13 15 15 11 11
5 8 7 6 8 9 9 8 4 9 8 15 15 13 17 15 16 11 11 15 13 16 18 18 16 7 6 8 15 15 13 15 20 21 23 26 21 16 17 19 21 21 21 21 21 22 22 20 18 20 20 20 21 21 18 15 18 18 14 15 13 17 16 18 14 16 14 13 13 14 13 14 15 15 13 11 11 12 14 14 13 12 12 13 13 14
7 7 4 7 7 10 7 7 11 9 20 16 11 9 11 10 17 18 14 11 12 8 5 6 8 8 16 19 19 19 21 19 17 18 15 16 23 24 25 21 20 19 20 19 17 16 16 18 19 17 14 16 18 14 11 11 13 14 15 17 17 16 18 16 16 14 14 15 13 13 13 14 14 15 13 12 12 14 13 13 12 12 11 13 13 13
11 9 9 6 7 6 7 8 7 15 12 13 14 6 5 10 6 10 8 10 11 18 17 11 13 14 14 14 14 13 15 12 7 8 14 16 20 24 22 22 22 20 21 21 22 22 20 19 21 21 23 20 11 11 13 15 14 18 13 14 19 15 16 17 16 15 14 15 14 14 14 15 15 14 13 13 12 14 13 11 13 14 12 13 12 11
17 12 12 13 7 14 11 9 18 11 15 10 7 8 14 13 13 15 14 18 12 14 14 14 12 8 8 12 13 9 4 5 6 14 8 14 14 15 24 26 24 23 24 23 24 25 24 23 22 23 16 9 12 15 14 14 16 19 17 16 15 17 16 17 17 17 16 16 15 15 14 15 16 15 14 14 14 13 13 13 12 11 11 14 11 12
15 12 11 14 17 16 9 9 12 8 14 16 17 12 10 5 5 9 14 12 8 8 10 13 10 11 12 8 5 6 9 10 7 16 13 12 14 15 13 12 14 17 20 21 17 17 13 11 12 9 16 14 11 12 15 15 19 19 19 16 15 17 15 16 17 16 17 17 15 15 14 14 16 16 15 14 15 14 11 9 8 10 11 16 13 12
16 14 14 18 18 10 8 12 16 14 20 16 13 11 11 10 16 11 14 11 12 8 11 15 14 11 12 12 7 12 13 15 17 19 19 11 12 15 18 19 16 15 15 16 19 19 15 14 16 15 15 18 17 11 12 16 19 21 19 16 15 16 18 16 18 17 18 17 14 14 14 14 15 16 15 14 14 13 13 11 11 8 9 11 11 12
16 13 13 8 9 13 13 12 17 21 20 3 8 12 13 11 10 12 13 18 11 15 9 13 14 15 13 10 16 16 20 16 17 23 14 14 15 15 19 21 17 16 16 14 12 14 16 17 19 16 17 18 18 14 15 16 20 19 19 16 16 17 18 18 18 16 15 15 14 13 13 13 15 14 15 15 13 13 14 11 11 10 10 8 10 12
12 11 8 19 17 11 13 15 12 20 15 7 10 15 13 5 14 14 20 15 12 14 11 12 13 15 13 14 17 18 22 22 17 13 12 11 10 9 11 10 12 13 17 15 15 11 15 14 17 19 19 17 18 17 16 18 22 19 17 19 18 18 18 17 15 15 15 14 14 13 13 12 14 15 13 14 14 12 11 11 12 10 11 10 9 9
8 5 10 6 8 14 12 14 22 13 12 7 15 10 7 6 14 17 17 8 9 12 11 7 11 8 7 15 18 20 14 16 12 8 8 7 13 9 12 15 17 14 10 9 11 16 18 17 17 16 13 10 17 17 17 20 22 19 19 18 19 17 16 16 16 15 14 14 13 12 12 12 10 13 13 11 12 12 10 7 9 11 11 10 10 9
12 12 9 5 9 5 7 8 7 14 7 8 18 8 10 10 15 11 13 9 3 7 6 10 9 8 8 6 6 9 11 11 11 11 11 12 14 14 15 16 18 18 18 17 14 11 22 20 18 16 14 12 13 15 16 21 21 19 18 20 17 15 15 15 15 14 14 13 13 11 11 11 11 11 12 10 10 13 12 9 10 8 10 11 9 9
4 6 7 7 11 8 8 17 17 10 11 9 9 11 6 5 7 7 8 10 10 8 11 12 14 11 7 14 10 11 8 11 10 12 11 11 11 10 10 11 12 14 13 10 14 15 19 19 16 16 11 12 12 14 17 24 23 19 19 18 15 15 15 15 14 15 15 14 13 12 12 12 13 11 11 11 10 11 12 9 9 10 9 10 11 11
5 3 11 6 6 7 10 9 9 8 8 10 5 4 5 7 9 6 9 7 10 14 6 11 13 12 9 11 9 11 14 10 10 13 18 13 15 17 17 15 16 18 18 19 16 13 17 23 20 17 13 11 12 13 15 19 25 20 21 17 16 18 18 16 15 16 15 14 13 12 11 11 11 10 11 11 14 13 10 9 10 11 6 10 11 11
3 3 3 6 6 7 7 11 6 7 8 10 7 4 6 8 10 8 8 14 11 8 12 11 11 12 12 12 18 15 14 11 13 15 12 12 12 9 11 14 12 12 15 15 14 15 17 17 17 18 17 10 9 12 11 14 23 24 20 16 16 16 17 17 17 16 15 13 13 14 16 16 11 11 11 9 9 10 11 13 11 12 8 11 10 11
5 7 9 6 7 8 12 7 9 13 12 5 9 10 7 8 8 10 13 12 11 14 11 9 12 14 11 12 13 13 15 10 13 12 10 11 14 15 15 17 15 17 20 19 16 18 18 17 18 16 16 16 8 11 10 12 12 21 20 18 16 15 15 16 17 16 14 15 16 14 15 15 13 11 10 8 10 10 10 10 11 11 11 11 12 11
12 6 8 3 5 7 8 9 13 13 11 11 7 9 12 16 15 13 12 14 11 14 13 15 16 19 14 18 20 20 23 19 13 18 19 20 20 16 15 16 17 13 12 15 14 15 15 17 18 17 17 19 16 13 14 13 14 15 18 18 18 16 15 16 17 19 18 16 15 14 15 15 11 14 11 8 10 12 11 9 10 13 13 14 15 14
9 9 10 5 8 12 8 7 15 13 7 7 7 7 9 11 14 15 13 11 9 9 10 13 11 18 17 18 14 15 17 22 20 17 16 15 14 14 15 14 13 16 16 16 14 17 22 20 20 21 20 17 14 14 14 13 14 16 18 17 16 16 18 18 16 18 16 15 15 15 15 15 13 13 14 13 12 11 8 9 10 14 10 5 4 12
5 9 6 9 10 9 9 11 12 16 15 20 17 13 17 14 9 11 12 11 12 13 12 13 14 8 7 8 11 12 14 16 13 9 12 15 15 12 12 14 14 15 14 14 15 13 14 16 20 18 15 13 11 12 14 13 13 14 15 18 17 17 20 18 18 16 15 15 15 15 13 11 12 12 14 15 14 14 13 11 14 10 13 10 10 9
5 7 8 8 7 11 12 11 7 8 11 15 15 14 13 10 8 10 10 10 9 6 4 8 11 14 14 13 5 8 8 13 10 7 9 10 13 15 18 18 17 14 14 13 13 11 15 14 12 13 13 13 12 13 14 15 14 14 14 15 14 16 18 18 17 15 15 15 16 16 15 13 13 12 13 14 15 14 16 14 17 18 16 11 11 13
Wind_Speed
2 2 5 7 9 7 4 6 4 3 4 4 4 4 3 2 3 2 3 3 6 4 4 5 6 4 6 4 5 6 4 5 5 5 6 5 5 5 6 6 7 6 10 2 4 4 4 3 3 3 4 4 3 3 3 4 3 4 4 3 4 2 0 1 0 1 1 1 3 1 2 2 3 3 2 3 3 3 3 3 3 2 2 1 2 2
2 1 8 10 12 7 5 5 3 4 2 3 5 3 1 3 2 2 2 4 7 6 3 3 3 7 9 4 4 1 3 9 9 8 7 7 6 5 6 8 8 9 1 2 2 2 2 3 3 4 4 5 5 2 3 4 5 4 2 4 4 1 1 1 1 1 1 1 0 0 2 1 3 3 3 3 3 2 3 3 2 1 1 1 1 2
1 7 11 11 5 2 4 5 5 5 2 2 2 2 2 3 3 2 1 5 5 2 3 3 4 9 6 4 4 6 9 8 9 9 10 8 6 6 6 8 8 5 5 2 3 3 3 4 4 4 4 4 5 6 6 4 3 3 3 4 2 2 2 2 2 2 1 1 1 1 1 0 2 1 1 2 4 1 0 2 3 1 1 1 1 3
3 7 17 7 4 5 2 4 5 2 2 4 3 1 3 2 3 1 1 3 4 3 1 5 6 6 4 4 4 6 8 6 4 5 5 5 7 8 9 9 7 7 5 6 4 4 3 4 4 3 4 4 3 3 3 3 4 3 3 3 3 3 3 2 2 2 1 1 1 1 1 1 0 1 2 3 3 3 2 2 4 2 0 1 1 2
10 14 2 7 7 8 5 4 6 4 4 0 4 3 1 1 2 4 3 3 1 1 4 5 2 5 2 1 3 3 3 4 4 3 4 4 5 4 3 4 5 7 6 5 3 2 4 4 5 6 4 3 4 4 4 4 5 4 6 5 5 4 4 2 1 0 2 2 1 1 1 2 2 1 4 4 4 4 2 1 2 2 3 1 2 2
11 16 0 2 4 4 5 3 6 8 4 1 4 9 7 3 4 2 5 7 3 3 3 5 1 3 3 4 7 5 1 5 4 5 6 5 4 3 5 7 3 3 2 4 5 6 7 6 4 2 3 4 3 4 4 5 5 4 5 3 3 3 2 3 2 1 2 1 1 1 2 4 3 4 5 3 3 4 4 3 2 4 3 4 2 2
9 2 3 3 4 4 5 5 4 7 5 1 6 9 8 5 6 7 7 6 2 3 3 1 5 2 4 3 4 1 3 7 2 5 7 4 4 5 6 6 5 5 3 1 2 2 4 3 3 2 3 4 4 5 3 3 3 3 3 4 4 4 4 2 2 2 2 2 1 1 1 1 1 1 4 3 3 4 5 3 2 2 3 3 4 3
1 7 3 4 5 4 4 5 5 10 7 3 5 6 6 8 7 7 8 5 2 1 1 4 3 1 3 4 2 3 2 4 4 6 6 5 4 6 6 6 5 5 4 5 4 4 4 5 6 7 7 5 7 3 3 3 3 4 5 5 5 4 3 2 2 3 3 3 2 1 1 1 2 2 4 5 4 2 2 3 4 0 1 3 3 3
1 4 1 2 2 4 6 6 6 11 8 4 2 8 5 6 4 5 6 3 1 2 2 2 1 0 3 4 3 1 2 3 7 7 7 6 5 5 6 7 7 6 5 5 5 5 6 6 6 4 5 5 3 3 5 5 5 4 3 3 3 3 3 2 3 3 3 2 4 3 2 2 2 2 4 4 3 2 2 4 4 4 3 2 3 3
3 5 4 5 6 5 5 3 11 12 6 3 6 11 9 9 6 5 4 4 1 2 3 3 1 2 6 6 3 3 1 5 8 10 9 7 6 5 6 6 5 3 3 3 4 4 5 5 5 5 1 2 4 3 3 2 3 3 3 3 3 3 3 2 3 3 3 3 2 2 2 3 5 2 3 2 4 3 2 3 4 4 5 4 3 3
5 7 4 4 4 4 3 2 4 8 2 6 8 9 8 9 4 4 6 2 3 2 6 5 3 3 2 4 6 4 6 8 5 3 2 3 4 5 5 6 6 5 4 4 4 3 4 2 1 2 4 3 2 3 3 3 3 3 3 3 4 5 2 2 3 3 3 3 3 3 3 3 4 4 2 4 5 4 3 3 4 4 5 4 4 4
4 1 0 1 3 5 4 4 5 0 1 5 3 4 8 4 6 3 3 4 2 4 6 3 5 3 4 4 5 8 3 3 8 8 7 6 8 8 7 7 6 5 5 4 4 3 3 2 2 3 3 3 3 3 3 3 3 3 3 3 4 3 3 2 2 2 3 3 4 3 3 4 4 3 3 3 3 3 3 3 4 4 4 4 4 3
1 2 1 4 4 10 4 9 4 2 2 6 8 8 7 1 4 1 3 1 4 4 0 1 5 3 5 9 5 4 9 6 7 8 10 10 9 8 7 7 6 5 4 5 4 4 4 5 6 5 4 3 3 5 4 4 4 3 3 4 4 5 4 3 2 4 3 3 4 4 4 4 3 3 4 3 3 3 2 3 3 4 4 4 4 4
5 4 4 1 0 0 7 8 2 3 0 7 8 6 6 2 1 0 2 1 5 5 3 2 2 1 4 7 4 7 7 6 7 8 6 10 11 10 10 7 6 5 6 5 5 5 6 6 6 6 5 5 5 4 4 4 4 4 4 4 4 6 3 2 2 3 3 4 4 4 4 5 4 4 3 4 3 3 3 2 3 3 3 4 4 4
2 5 3 1 1 1 3 7 13 9 8 4 1 10 8 8 4 2 3 3 4 4 3 2 2 4 1 3 1 5 6 4 5 3 2 4 3 2 2 4 4 4 5 5 5 6 7 7 7 7 6 5 5 5 4 4 4 4 4 4 5 4 4 3 4 3 4 4 4 4 4 4 3 4 3 4 4 4 3 3 4 4 4 4 5 4
1 5 8 3 1 2 5 1 3 6 7 1 3 6 5 5 6 1 4 3 2 2 2 1 3 3 4 3 4 2 1 1 2 2 3 3 3 4 5 6 7 6 6 5 5 5 5 5 5 4 5 5 5 5 4 5 4 4 5 4 5 6 5 3 3 4 4 4 3 2 3 4 3 2 2 3 3 4 3 4 4 5 4 5 5 5
1 1 2 8 5 0 3 5 1 5 4 4 3 4 5 3 10 6 1 1 1 3 2 0 6 5 7 4 2 4 4 2 2 2 3 4 4 5 5 6 6 6 6 6 6 6 5 4 4 5 6 5 5 5 6 6 6 6 5 5 5 5 3 3 4 4 3 3 2 4 3 3 3 4 4 5 4 4 3 3 4 4 5 4 4 5
2 5 3 1 1 1 1 1 5 4 5 7 1 8 2 3 6 5 2 2 3 2 3 1 3 4 3 3 4 4 2 0 1 1 1 2 3 5 5 6 7 8 7 6 5 4 6 6 7 5 5 6 7 7 6 6 5 6 6 6 6 5 5 5 4 4 4 4 4 4 4 4 5 4 5 4 5 3 3 4 4 3 5 5 5 4
3 3 3 1 1 3 3 4 7 3 3 5 5 6 5 1 1 2 5 0 1 1 1 1 1 4 5 5 2 3 4 5 4 1 3 3 4 6 5 5 4 4 4 5 5 5 5 6 6 6 7 6 6 6 7 7 6 5 4 5 5 7 7 6 4 3 3 3 4 4 4 4 4 4 4 4 3 3 3 5 4 4 5 5 4 4
2 3 6 1 2 2 2 4 3 1 3 2 3 4 1 3 3 3 4 4 5 1 1 3 2 3 6 6 8 7 7 6 5 4 6 8 9 7 6 6 7 7 7 7 6 6 7 7 7 7 7 7 6 6 6 5 4 6 6 5 5 4 2 2 3 4 4 5 4 4 3 4 4 4 3 3 3 4 4 5 4 5 5 5 4 4
2 1 2 2 3 1 2 1 3 8 5 1 2 1 1 3 2 4 2 1 1 5 3 2 1 6 8 6 7 9 8 9 10 11 8 8 7 6 6 8 8 8 8 7 7 7 7 7 5 5 5 6 5 4 4 4 6 7 5 5 5 6 5 4 5 4 5 3 4 4 5 6 4 5 3 3 3 3 3 4 3 4 4 4 4 3
3 1 3 2 2 0 3 4 3 6 8 7 7 5 8 6 3 2 2 1 2 2 3 4 5 8 10 3 8 7 8 8 9 8 8 7 6 6 6 6 8 8 7 7 7 6 7 5 5 4 4 3 4 4 4 4 3 4 4 6 5 4 4 5 5 5 5 4 4 5 5 6 4 3 2 3 4 3 3 3 3 4 3 4 4 3
4 3 4 1 1 1 1 1 2 3 3 1 5 2 5 3 7 4 1 2 2 1 4 3 1 4 3 2 4 5 7 10 7 6 7 7 6 6 7 7 6 6 8 8 7 7 7 7 7 7 6 6 6 6 5 4 4 5 5 4 4 4 7 6 6 4 3 4 4 6 5 4 3 2 2 2 2 2 3 3 4 3 3 3 3 3
5 2 3 3 5 6 3 1 3 3 4 3 4 3 1 1 2 6 4 5 6 1 1 0 1 4 3 1 4 6 4 0 4 6 8 6 4 5 6 7 6 5 5 4 4 5 6 5 5 4 5 5 5 5 6 5 5 4 4 4 3 6 7 6 5 4 4 4 4 4 3 2 2 1 1 1 1 2 3 3 3 1 4 4 5 6
2 1 6 2 2 4 5 4 2 2 5 3 1 1 1 3 6 3 7 1 3 5 5 6 3 3 3 3 3 2 3 5 7 6 6 7 4 6 7 6 5 5 5 5 6 5 4 4 5 7 6 6 6 5 5 5 5 4 5 4 5 7 7 5 3 3 3 3 3 1 1 1 0 0 1 1 2 1 2 4 5 4 6 5 7 6
2 3 5 4 5 4 1 1 3 2 3 0 1 0 1 4 6 1 0 1 1 0 4 2 3 8 7 3 2 1 3 3 1 4 4 4 6 8 7 6 6 6 7 7 6 5 7 8 6 5 5 5 6 6 5 5 5 5 5 6 6 7 5 3 2 3 2 2 2 2 2 2 1 2 3 2 3 5 5 5 5 6 5 6 7 7
3 1 3 7 9 9 8 5 3 2 2 1 2 2 2 2 2 5 5 4 3 3 4 7 4 1 3 2 2 3 4 8 8 5 7 7 5 4 4 5 7 8 8 9 9 7 5 4 7 7 6 6 6 5 5 6 6 6 6 7 6 5 4 3 3 3 3 3 3 3 3 3 4 3 4 5 5 5 5 6 6 6 6 5 7 7
3 2 0 5 5 9 7 1 2 3 3 2 3 3 2 3 3 4 2 3 5 8 3 5 5 4 8 5 5 5 6 4 5 7 7 5 6 9 8 5 5 4 4 4 5 7 9 8 7 7 7 6 7 6 6 6 7 7 7 8 6 5 5 4 4 4 4 4 4 4 4 2 4 6 6 5 5 6 6 6 6 6 5 6 7 7
4 3 1 1 1 1 1 1 1 0 0 2 5 2 3 3 2 3 3 3 7 1 6 3 4 5 6 7 8 9 10 11 12 14 13 10 5 4 5 7 9 8 6 7 8 8 8 9 8 8 7 8 6 7 8 7 7 5 5 6 6 5 6 5 5 5 5 4 4 3 4 6 5 6 6 6 6 6 7 6 6 6 6 6 6 6
5 1 1 0 1 3 4 2 1 1 0 1 0 3 3 5 5 1 0 2 6 0 4 3 7 11 9 7 9 8 7 5 2 1 3 4 8 9 8 8 9 9 9 10 10 10 9 9 9 8 8 6 7 8 8 8 8 8 8 8 7 6 5 5 5 5 5 5 5 6 6 7 6 7 6 7 7 7 6 7 6 7 7 7 7 7
4 2 2 1 2 1 5 4 4 1 4 1 0 2 1 1 3 1 1 1 2 2 1 2 3 7 9 8 6 1 3 2 1 4 7 6 6 9 10 10 9 9 10 9 9 9 9 9 9 7 7 9 9 10 10 9 9 8 8 8 7 7 5 6 6 5 6 6 6 7 7 8 7 7 7 7 7 6 7 7 7 7 7 7 7 8
5 0 1 2 2 1 2 4 3 3 4 2 2 3 0 3 1 3 2 6 5 5 3 3 0 5 7 2 0 0 3 5 7 7 5 5 7 7 10 9 9 10 10 11 10 9 9 10 10 10 10 11 11 10 10 10 9 7 9 8 8 5 6 6 6 7 7 8 7 8 9 8 8 8 7 7 7 7 7 6 7 8 7 8 9 7
1 5 3 2 3 2 3 2 1 2 2 5 6 7 9 5 1 1 2 2 6 8 7 3 8 8 6 1 3 1 3 6 6 5 6 4 5 9 11 12 12 11 11 11 11 11 12 12 13 13 12 10 11 11 12 12 9 10 10 9 5 6 6 6 7 7 8 8 9 8 8 8 9 9 8 7 7 6 7 8 7 7 8 9 7 7
2 3 1 0 2 2 2 2 0 0 1 4 3 3 6 6 9 5 4 9 9 8 6 7 6 2 1 2 6 6 7 7 11 13 12 13 12 10 9 8 9 11 11 11 12 13 13 11 10 11 12 13 13 13 11 9 11 11 6 4 5 7 6 7 7 8 9 8 8 9 8 9 9 9 8 7 7 7 7 8 7 6 7 8 7 8
1 4 1 0 2 0 2 2 1 1 7 7 2 3 4 4 5 10 5 3 2 5 4 4 5 5 9 9 11 10 12 9 5 7 8 8 8 11 14 13 11 11 12 12 10 10 10 12 12 10 9 10 12 9 6 7 8 4 3 5 6 6 8 7 9 8 9 9 8 8 8 9 9 9 8 7 7 7 8 8 7 7 6 7 8 8
3 5 3 1 2 1 2 3 1 4 5 5 8 2 2 2 1 2 3 6 7 12 11 6 8 9 5 6 3 2 2 3 2 4 6 5 7 9 10 11 12 12 13 12 13 13 13 12 14 14 15 12 7 7 8 8 5 6 5 5 7 7 8 9 9 9 9 10 9 9 9 10 9 9 8 8 8 8 8 7 8 9 7 7 6 5
5 4 2 1 1 3 2 2 7 4 8 5 2 1 0 1 2 3 3 7 6 6 9 8 8 5 5 2 1 0 0 1 2 8 4 9 9 8 10 12 13 14 15 13 12 14 14 14 14 15 10 5 7 8 9 6 6 6 7 7 7 8 8 9 10 10 10 10 9 9 9 9 10 9 9 9 9 8 8 8 7 7 6 8 7 7
3 1 3 4 1 3 3 2 3 3 3 6 5 1 1 0 2 3 1 5 2 4 6 8 7 7 5 1 2 1 1 1 3 8 6 8 9 10 8 7 5 6 9 9 7 8 8 7 6 4 6 8 7 8 5 6 7 8 8 8 8 10 9 10 10 10 11 10 10 9 9 9 10 10 9 9 10 9 6 5 5 7 6 9 8 7
10 7 2 2 2 2 4 2 3 4 5 7 5 5 5 4 4 3 1 4 5 2 3 8 9 7 5 5 4 2 4 3 8 8 10 4 7 9 11 12 11 10 9 9 10 11 10 8 7 6 4 5 8 7 7 8 9 9 9 9 10 10 11 10 11 11 11 11 9 9 9 8 9 10 9 9 8 8 8 7 6 4 4 6 7 7
8 6 8 3 1 2 5 4 6 4 3 1 4 6 7 5 1 3 1 4 4 10 5 3 6 4 4 1 6 6 7 5 9 10 3 5 7 8 11 12 11 10 11 9 7 7 4 4 4 5 8 10 12 8 10 10 9 10 10 10 10 11 11 11 11 10 9 9 9 8 8 8 9 9 9 9 8 8 8 6 6 5 5 5 6 6
3 2 1 8 5 4 4 3 2 5 4 3 5 9 9 3 1 3 5 3 6 9 6 1 3 2 1 4 5 7 9 3 3 6 9 3 1 6 7 6 7 7 9 6 7 5 5 7 9 11 12 10 7 9 9 10 11 10 10 12 11 12 11 11 10 10 9 9 9 8 8 7 9 10 8 8 8 6 6 6 7 6 6 6 5 5
3 1 3 2 4 7 5 4 6 3 3 3 9 5 4 0 2 2 2 3 5 7 7 1 2 3 2 5 5 4 7 10 8 5 6 4 5 4 3 4 3 1 1 2 6 7 7 7 7 5 5 6 10 10 11 11 12 11 11 11 12 11 10 10 10 9 9 9 8 8 7 8 6 7 7 7 6 7 5 4 5 6 6 5 6 6
4 4 4 1 1 2 2 1 1 2 0 4 12 4 4 2 1 3 4 4 1 4 4 6 6 5 3 3 2 4 5 7 6 7 7 6 6 4 1 2 4 4 3 2 2 4 8 8 8 9 8 7 8 9 9 12 13 12 11 12 11 9 10 10 9 9 9 8 8 7 7 7 8 7 7 7 6 8 7 6 6 5 6 6 6 6
2 0 0 2 4 1 2 1 1 1 5 3 5 2 3 0 1 2 2 2 1 1 2 3 4 4 4 4 5 7 5 7 7 8 7 7 7 5 4 4 3 1 0 0 2 4 5 6 5 6 4 6 7 7 9 12 13 12 12 11 9 9 9 10 9 10 10 9 8 8 8 8 9 8 7 7 6 6 7 5 6 6 5 6 6 6
2 0 3 0 2 1 0 1 2 3 4 4 1 1 2 4 2 2 2 3 3 4 2 2 2 1 3 4 4 5 8 6 3 3 4 5 5 5 5 4 3 3 3 2 0 0 2 6 7 7 6 4 6 5 7 8 14 13 13 10 10 11 11 10 10 10 9 9 8 8 7 8 7 7 7 7 8 8 6 6 6 6 4 6 6 6
0 0 0 1 1 2 1 4 3 3 4 5 3 2 3 3 2 1 2 3 3 3 2 3 5 4 4 4 8 5 4 5 6 6 6 5 5 4 2 2 2 3 3 3 2 2 2 4 5 7 8 5 5 6 6 7 12 16 12 10 8 9 10 10 10 10 9 8 8 9 8 9 5 6 6 5 3 6 7 8 7 7 5 6 6 6
2 1 3 2 4 3 1 3 5 8 8 4 5 4 2 2 3 2 5 3 5 4 5 4 4 5 6 4 4 5 8 6 9 8 5 4 5 4 2 0 2 3 4 4 2 2 3 4 6 7 8 9 5 6 7 8 6 11 12 12 9 9 9 10 10 10 9 9 9 8 9 9 7 6 3 5 5 5 5 6 6 6 6 6 7 7
5 2 1 1 1 3 2 4 6 7 4 4 2 4 7 10 10 6 3 5 5 4 3 5 4 6 6 7 6 5 9 10 9 10 10 12 13 11 6 6 4 3 1 1 4 6 6 5 6 6 6 7 5 4 5 5 6 9 11 11 11 10 10 10 10 11 11 11 9 8 8 9 9 8 5 5 6 7 6 5 6 7 7 8 8 7
3 3 2 2 2 5 2 2 10 5 1 2 4 4 4 6 8 10 9 6 6 6 6 6 5 3 3 4 5 5 4 11 12 7 7 6 6 7 6 7 3 3 3 2 1 4 6 5 6 6 4 3 4 5 3 2 4 6 9 8 9 10 11 10 10 11 11 9 9 9 9 9 8 6 7 7 7 6 5 4 6 8 6 3 3 7
2 4 3 5 4 3 3 3 6 6 6 11 11 8 11 9 6 7 7 6 7 7 7 8 8 4 3 3 4 1 2 6 8 6 6 6 7 7 6 4 1 4 5 3 3 1 1 0 4 7 5 6 6 5 6 5 6 8 9 11 10 10 12 11 10 10 9 8 8 8 7 6 6 6 8 8 8 8 7 10 11 7 6 6 5 7
3 2 3 3 1 3 5 3 0 2 5 7 5 9 8 6 5 6 7 7 7 3 2 4 6 8 8 5 2 0 1 2 5 3 4 4 6 4 3 1 2 2 2 4 6 6 6 6 4 5 5 6 7 8 6 6 7 8 7 8 8 9 10 11 9 7 5 6 6 7 7 6 6 6 7 7 8 8 9 7 10 15 14 9 8 11
Wind_Direction
125 200 231 234 240 215 199 196 194 178 142 104 103 111 183 199 288 272 256 217 157 100 213 199 225 259 270 246 231 210 184 224 238 235 232 234 234 233 237 237 236 229 236 216 206 202 188 179 164 139 126 124 113 121 141 145 157 168 177 164 219 238 121 147 117 40 51 14 345 13 11 292 281 295 329 357 29 3 333 344 7 20 8 8 350 19
73 270 263 229 234 214 183 174 116 103 77 129 123 133 240 191 236 244 203 158 174 153 248 174 211 256 255 275 253 192 177 227 223 226 233 234 232 239 236 246 240 240 294 142 164 196 154 151 145 131 130 135 131 162 144 172 190 184 172 182 212 223 174 180 164 162 163 190 171 174 259 278 286 340 13 339 348 26 324 342 9 20 2 346 12 1
75 210 250 246 219 127 144 157 180 173 131 65 171 161 143 262 229 295 22 150 175 135 285 158 194 248 263 259 217 189 204 224 217 210 219 211 223 232 236 240 246 254 249 219 219 178 180 163 156 144 149 172 173 164 177 186 159 173 192 211 213 222 207 211 168 142 225 220 192 150 290 151 311 242 243 257 267 295 296 316 327 32 350 342 341 3
304 271 242 248 135 129 69 125 139 109 79 119 87 81 228 231 126 261 340 127 165 159 227 177 199 276 299 285 255 220 201 232 223 226 244 205 217 220 224 221 223 231 234 225 206 197 182 169 157 134 156 179 151 148 155 155 182 193 214 215 207 224 230 228 222 210 183 113 141 172 134 74 144 282 324 301 286 340 51 349 316 335 83 311 305 331
207 245 116 132 143 140 135 151 131 145 230 296 149 162 214 186 224 148 194 126 28 17 92 88 51 320 324 223 282 282 254 263 246 234 238 237 228 235 263 264 223 223 212 211 199 190 160 157 176 180 168 142 166 173 182 180 184 193 206 209 200 205 209 228 237 224 126 95 69 20 7 31 3 352 2 12 344 339 308 29 2 318 347 305 274 318
277 265 199 115 149 146 122 148 188 147 220 320 230 200 198 164 142 62 119 119 125 259 276 136 29 301 285 282 244 275 359 231 232 220 243 224 216 196 223 238 242 253 196 192 206 188 180 179 176 114 135 163 180 194 204 191 192 187 204 203 212 219 219 223 241 189 144 155 148 44 30 354 4 342 342 344 328 326 331 327 312 313 324 332 303 275
236 296 126 168 145 148 160 186 219 162 166 102 268 192 196 145 134 129 138 97 135 185 282 101 156 262 324 288 264 291 206 236 296 235 243 223 203 204 220 229 220 218 211 176 135 144 161 182 146 164 185 187 187 221 183 179 191 198 193 199 195 198 213 217 199 164 141 113 114 182 193 192 235 263 276 241 253 261 289 309 324 295 316 332 334 315
222 294 78 95 110 123 134 234 231 156 124 219 242 161 153 122 141 166 160 145 192 259 341 53 107 157 318 289 287 287 222 259 273 258 251 239 201 209 218 219 214 211 197 186 179 174 187 176 177 188 203 186 206 186 161 177 172 186 193 186 196 200 204 204 155 166 169 162 163 151 183 185 219 206 258 290 300 270 300 319 310 221 284 317 339 330
168 288 138 108 105 115 189 210 172 151 147 213 307 115 120 144 151 153 145 129 118 97 293 325 340 39 264 265 321 64 172 266 258 245 242 238 216 207 217 216 214 208 196 179 172 182 187 190 202 200 200 211 169 164 180 186 190 187 186 187 175 188 204 189 180 171 201 176 175 186 180 268 260 228 259 289 307 322 327 322 315 339 319 323 324 347
283 217 261 157 137 209 229 226 154 164 174 263 107 84 90 77 68 114 106 87 352 67 269 237 162 159 287 278 333 350 292 277 247 234 230 226 213 203 212 221 216 196 168 185 192 185 198 201 204 204 197 164 201 190 182 163 150 158 158 170 172 211 212 197 187 183 184 196 155 172 197 231 282 290 305 328 304 331 338 339 307 318 321 331 338 337
259 320 174 119 189 194 144 30 180 156 150 134 86 81 54 54 57 39 68 96 65 1 258 231 183 130 302 265 202 135 218 203 236 297 270 230 216 210 219 214 208 194 184 187 189 192 220 229 183 140 194 209 162 176 168 162 165 159 168 171 179 217 198 187 194 175 204 189 188 205 207 215 253 281 310 337 331 340 355 332 307 312 306 312 306 318
325 325 145 250 139 91 93 68 17 78 97 103 80 115 76 7 14 32 351 41 100 272 267 280 171 123 148 290 277 240 262 209 174 214 207 205 215 207 205 207 205 194 187 175 167 196 190 165 161 152 202 191 187 155 172 172 157 170 172 167 200 240 227 218 195 191 219 196 214 222 209 224 233 245 267 266 270 291 294 298 301 311 322 314 315 307
346 231 254 324 201 124 105 86 5 23 9 83 91 74 100 235 35 276 12 148 225 205 292 65 131 67 252 229 237 266 235 233 217 200 197 195 210 208 204 203 195 187 176 171 181 172 175 188 183 188 197 163 171 194 188 184 178 174 170 178 188 234 234 225 195 205 215 201 221 216 218 235 242 235 229 241 258 254 258 274 293 318 312 318 331 311
284 295 335 283 125 227 124 104 124 89 132 122 127 122 93 82 44 230 282 270 309 289 255 201 308 274 243 289 241 254 264 228 221 218 196 186 198 201 201 190 184 184 183 183 177 180 185 191 193 193 183 185 190 197 187 181 177 181 180 181 188 230 227 221 199 214 207 220 227 213 214 229 225 237 224 240 235 264 242 232 262 256 258 280 261 276
27 342 308 140 212 254 112 160 177 167 170 186 77 147 173 144 154 205 198 196 212 205 293 280 106 232 87 241 229 254 267 247 214 247 242 218 213 193 139 146 158 173 187 177 181 185 190 195 187 185 185 187 190 190 181 182 182 170 177 180 203 235 252 218 221 202 218 235 232 224 220 226 209 233 236 243 229 251 266 256 248 263 250 247 269 253
210 205 255 232 336 108 181 179 94 81 63 1 150 86 93 217 142 95 211 143 185 143 41 182 208 184 184 255 290 305 325 51 151 158 139 167 118 126 140 165 183 183 183 182 184 187 195 194 187 177 183 189 188 188 180 185 175 177 195 193 204 211 228 219 224 224 217 231 232 222 222 229 217 243 240 256 249 246 224 248 226 257 249 244 263 275
18 317 270 317 100 202 213 159 171 145 151 232 109 204 208 143 101 98 56 24 105 53 195 171 318 303 297 316 359 1 57 24 75 112 150 157 138 139 171 179 182 184 180 183 186 187 183 177 192 189 184 185 187 181 187 190 187 193 190 191 210 228 235 228 223 228 223 234 240 255 243 248 246 238 243 250 263 262 252 235 242 246 257 262 254 269
146 247 296 34 146 13 240 138 94 41 142 90 168 231 156 125 120 127 170 342 62 156 252 22 236 297 27 272 325 23 57 332 106 155 152 133 139 177 193 184 185 189 188 183 180 174 181 184 182 186 195 186 184 190 194 199 197 201 193 193 204 215 224 240 226 227 221 218 228 250 252 247 233 237 245 244 256 273 286 274 258 258 270 256 251 243
116 323 299 266 214 287 347 76 45 13 26 149 200 169 113 237 238 330 95 33 111 256 283 315 307 266 183 243 341 274 207 209 205 183 135 177 198 207 196 196 183 159 153 166 171 172 183 188 184 182 194 198 193 194 196 200 196 201 209 208 203 212 215 223 217 225 226 206 222 226 238 242 251 240 249 254 259 271 266 272 269 259 261 283 281 270
48 159 288 300 138 290 18 69 158 267 351 54 88 74 340 104 154 125 200 168 117 195 71 290 30 241 212 213 194 221 214 196 183 180 211 207 205 197 190 183 177 179 184 179 178 183 188 193 188 182 188 193 201 203 211 206 194 207 213 206 215 232 244 249 240 223 225 223 217 243 257 259 244 252 245 254 250 263 253 268 298 309 318 303 320 314
104 102 201 281 274 20 146 339 202 160 132 23 33 327 12 31 211 100 43 69 169 166 176 166 315 274 261 214 180 212 200 196 184 196 204 214 213 202 193 180 183 187 183 184 180 182 188 193 196 196 197 195 196 205 204 197 197 212 209 215 220 218 229 230 234 213 230 213 225 234 248 256 256 262 262 269 255 275 326 346 316 284 259 292 297 289
94 103 183 311 28 259 229 246 186 177 171 162 159 197 169 120 124 119 244 42 71 96 199 129 234 270 271 182 205 200 207 198 212 191 190 213 208 192 191 193 187 186 194 183 184 179 183 190 197 202 202 201 185 203 204 213 209 224 212 219 219 229 240 232 237 217 224 216 220 225 243 253 259 269 331 339 6 357 297 274 270 261 276 282 291 284
144 150 93 90 166 144 241 331 256 176 128 160 132 187 152 119 105 97 122 247 45 28 116 154 107 278 240 233 230 220 192 206 194 168 197 208 199 192 196 196 198 194 184 184 182 182 184 186 188 191 192 195 200 203 201 197 199 208 216 218 216 209 238 221 228 217 209 211 217 233 242 260 294 20 28 28 330 303 271 262 271 291 298 328 330 341
89 72 68 302 316 298 321 352 73 76 127 77 34 59 92 143 173 166 171 178 134 151 66 11 191 249 288 261 254 249 262 191 161 180 195 205 182 188 188 194 192 182 197 194 185 181 183 183 181 175 192 203 211 214 207 200 198 205 209 209 198 215 234 231 230 213 202 215 232 246 278 320 26 58 52 331 245 254 275 306 324 345 71 71 66 58
111 288 118 72 2 337 341 350 359 335 55 93 150 348 75 94 73 124 105 48 93 210 164 119 224 285 272 316 308 232 186 172 184 201 187 191 197 190 192 194 188 185 173 184 189 184 173 174 185 195 193 199 209 213 211 204 201 197 211 198 208 227 229 228 210 192 210 213 244 303 338 317 4 133 176 227 234 291 65 80 86 78 82 82 70 60
93 180 108 130 145 147 185 270 256 260 220 51 118 42 30 111 133 90 93 17 87 266 119 144 255 250 270 309 4 270 175 189 236 213 220 211 186 184 187 189 185 179 190 186 187 172 183 196 196 196 201 203 207 208 209 208 205 206 208 216 215 225 233 230 171 187 180 186 212 234 232 228 182 190 202 180 115 114 104 92 85 81 67 72 80 70
128 115 97 155 151 184 200 207 247 121 67 126 209 146 207 70 83 87 102 86 216 181 187 234 183 270 288 253 299 237 198 191 194 197 195 209 205 194 203 195 186 187 187 188 190 188 179 185 204 206 206 208 208 210 210 206 210 209 212 227 225 221 220 206 175 175 178 189 198 205 213 210 214 183 140 128 120 106 94 85 81 79 76 68 77 78
72 78 354 146 174 185 185 174 184 184 159 220 161 200 147 136 126 110 143 251 173 97 302 260 212 165 236 260 254 236 243 251 222 203 203 205 196 190 187 184 182 188 190 177 188 191 192 197 205 210 211 211 216 212 217 216 213 211 211 226 228 214 212 204 173 179 192 192 196 204 210 180 128 121 121 113 106 96 89 84 77 76 74 77 74 75
137 120 228 108 267 235 185 353 18 96 125 182 188 177 184 170 154 149 219 158 140 162 215 254 170 195 244 232 227 213 197 200 201 204 202 195 157 129 147 175 188 193 189 192 205 201 196 198 205 211 211 216 215 217 221 222 223 220 225 227 230 209 214 190 180 194 192 180 180 171 137 123 119 115 112 110 102 93 87 84 83 79 76 72 76 76
92 51 175 118 86 9 22 358 339 176 294 58 100 226 180 157 193 154 211 206 171 160 217 193 180 220 230 234 225 234 219 217 233 56 89 140 176 178 175 185 191 193 194 201 206 204 202 204 205 208 208 214 215 221 223 224 224 218 215 223 221 213 203 164 189 179 172 165 158 145 135 124 120 116 113 107 102 101 98 95 92 87 81 75 78 83
102 236 117 61 75 335 323 345 78 96 136 262 309 11 263 151 121 166 112 100 315 343 48 109 158 263 260 219 240 316 138 118 107 176 200 192 163 175 183 191 194 196 203 209 207 206 206 208 211 209 204 211 215 219 221 223 225 223 222 225 219 210 185 168 169 167 158 155 154 140 130 123 122 120 112 114 110 106 103 101 98 93 89 87 86 90
67 172 54 65 88 315 326 8 346 41 57 76 330 313 187 138 186 211 174 202 149 200 153 130 128 267 273 263 275 339 134 163 205 211 204 199 187 180 190 196 195 200 205 208 205 205 207 209 213 212 212 212 214 216 218 223 226 221 228 223 219 191 160 158 157 154 153 147 143 137 132 129 126 119 119 115 111 108 106 103 95 92 94 96 92 88
51 130 146 97 102 252 264 1 13 38 30 355 301 238 197 220 207 279 284 201 203 140 119 164 228 220 232 226 152 260 197 205 213 216 221 222 201 191 198 200 200 200 206 204 200 203 207 207 210 212 215 215 215 214 219 214 213 220 223 221 202 141 155 153 152 145 142 146 140 139 134 133 127 124 121 117 113 112 106 99 96 100 103 95 100 102
71 85 108 298 146 239 275 315 17 89 263 241 235 184 148 187 199 180 215 208 205 166 194 196 218 219 179 181 191 208 200 215 204 216 198 188 185 202 219 217 207 204 206 206 202 202 207 209 214 215 214 214 216 215 216 206 210 220 215 185 141 154 150 144 146 144 143 142 142 140 137 133 129 125 124 121 115 112 106 99 99 102 102 108 108 105
90 80 87 134 97 165 345 12 4 301 239 243 269 252 226 229 171 202 246 304 234 253 298 284 264 232 214 193 201 205 205 222 232 216 205 212 191 190 199 204 203 204 209 208 206 210 209 209 213 216 220 225 222 219 207 218 217 207 153 148 148 150 146 146 143 142 145 141 141 139 136 132 127 126 124 121 119 112 109 112 113 108 112 120 122 123
140 106 161 43 115 76 57 46 98 237 245 269 287 320 180 140 207 157 295 275 208 199 206 227 238 231 225 235 282 316 251 260 282 240 222 225 202 203 198 206 207 200 208 209 202 205 206 206 208 209 217 218 203 211 203 212 186 176 176 152 148 150 149 147 143 144 143 142 146 144 142 135 130 127 127 126 122 118 124 131 129 127 128 115 112 114
128 90 101 109 290 174 177 144 228 291 326 333 18 30 192 349 167 142 211 272 226 202 173 218 242 258 266 274 188 301 279 45 0 296 221 195 210 215 207 215 202 202 208 212 200 206 206 207 206 214 212 187 197 204 212 188 161 157 143 143 148 147 148 146 147 150 150 147 149 146 145 140 134 133 134 134 130 134 139 133 131 123 127 115 122 129
29 123 235 118 273 116 119 2 341 359 281 281 240 317 289 178 228 224 102 299 290 234 215 201 225 237 229 128 136 203 73 80 304 284 252 206 201 207 225 235 238 235 229 223 217 223 219 217 221 213 186 201 203 209 190 162 160 146 144 145 148 146 149 149 151 152 149 149 151 149 147 143 139 137 140 142 142 144 135 122 118 143 148 133 139 136
8 38 89 128 172 56 79 156 211 188 246 218 267 292 287 280 234 215 65 295 276 322 243 200 222 232 211 165 189 137 78 192 244 250 265 206 205 203 206 220 217 218 217 215 211 217 214 207 200 194 182 186 210 206 169 160 153 147 148 150 151 150 150 154 153 155 152 152 151 148 146 144 141 141 143 140 140 134 140 151 149 137 116 124 131 140
42 4 328 352 37 189 141 159 231 196 230 333 289 293 306 335 290 100 298 287 283 339 325 275 255 300 348 103 154 161 152 205 244 242 271 234 208 204 198 211 214 215 223 220 222 222 194 147 140 166 187 197 210 174 162 157 155 154 151 153 149 151 156 158 157 153 144 143 145 146 146 148 144 142 143 147 146 150 146 136 127 131 125 121 131 144
52 359 70 216 220 264 186 236 346 299 284 302 299 308 310 269 79 112 200 240 314 323 321 248 289 276 160 176 184 180 223 214 327 310 305 317 196 230 227 234 225 214 221 216 223 172 177 186 189 197 200 203 171 161 161 154 149 153 154 151 153 160 158 153 146 142 143 141 141 142 143 143 144 147 150 144 144 138 136 138 139 144 132 130 124 124
37 124 286 112 148 180 204 174 223 242 248 281 306 292 264 29 191 212 238 247 276 311 336 314 319 312 212 200 240 287 325 316 317 340 345 302 249 264 230 212 170 159 295 210 184 175 190 188 198 193 187 177 171 165 161 155 149 149 152 154 159 158 148 142 141 139 138 136 133 132 134 140 138 134 131 119 131 140 137 145 146 142 137 130 129 120
181 145 208 182 171 79 61 102 350 224 333 37 330 353 19 91 222 222 279 306 264 317 12 27 50 9 20 354 302 267 303 331 345 350 340 345 334 314 256 174 188 188 178 135 157 196 167 175 185 188 180 168 167 164 160 151 148 153 154 154 155 145 140 137 134 132 127 124 129 128 126 127 129 123 128 149 165 143 145 150 132 120 119 123 111 109
188 121 289 265 195 146 96 127 157 211 262 324 25 95 304 130 258 279 196 318 327 111 25 48 29 46 51 67 26 2 358 350 352 357 351 358 357 351 10 4 2 7 14 354 175 178 170 159 157 148 152 158 158 160 158 151 146 150 149 149 148 137 133 131 132 131 130 134 134 132 130 128 127 141 144 156 151 142 140 136 115 106 119 120 121 113
324 146 184 113 242 95 158 197 243 248 251 281 217 239 242 269 275 243 220 256 313 350 221 85 10 359 42 17 47 37 10 22 346 348 350 337 352 359 17 17 13 11 358 359 353 139 156 154 152 139 132 142 147 147 151 150 139 144 147 159 148 146 140 137 134 131 132 135 130 121 121 119 129 144 148 161 148 150 143 134 124 103 95 103 102 102
72 242 138 117 264 262 224 213 279 309 318 311 273 239 277 303 280 206 300 299 270 267 304 343 322 324 4 28 11 14 32 347 358 14 16 8 3 342 350 48 59 50 45 30 24 15 60 97 117 131 132 131 145 142 150 157 149 150 156 145 144 138 138 134 134 133 136 133 126 125 122 118 130 123 109 125 160 147 152 146 135 126 122 96 96 105
289 5 41 34 310 82 188 305 16 329 318 329 319 313 282 258 305 317 325 268 274 310 314 299 317 336 354 347 47 357 334 359 346 340 350 350 360 331 310 171 100 113 128 127 131 99 105 128 136 147 151 150 163 151 153 155 165 143 142 146 143 136 134 135 135 133 130 129 128 129 130 133 122 93 104 140 112 103 116 129 128 125 119 114 114 107
317 266 83 254 276 70 261 316 320 303 278 263 231 351 340 336 329 327 312 290 283 276 269 283 301 11 10 345 341 359 330 324 327 329 335 330 321 311 289 259 202 143 111 161 139 133 136 150 154 150 154 160 166 166 149 137 134 145 145 144 144 145 143 142 143 140 140 141 140 140 138 128 133 142 144 102 107 110 103 102 123 124 134 140 134 123
244 347 10 318 319 281 305 342 346 333 51 55 340 314 309 316 320 319 327 335 0 12 1 359 43 1 346 320 319 352 354 305 296 293 278 268 255 253 278 289 261 137 99 49 61 125 147 151 146 149 113 58 37 9 21 79 107 141 139 146 148 146 145 147 145 143 141 147 144 145 141 143 150 155 126 110 85 65 66 98 114 113 93 55 171 141
359 32 315 45 25 5 62 338 356 21 319 327 331 344 337 334 330 317 329 349 12 8 5 12 2 31 44 354 315 290 237 274 290 297 280 265 255 256 250 258 349 64 67 84 91 58 75 241 164 148 152 156 136 155 192 187 175 170 166 158 162 160 151 151 147 143 149 147 142 137 130 133 146 143 125 119 115 101 74 50 54 43 108 111 86 85
63 342 37 46 69 283 270 289 156 207 256 247 280 313 316 318 333 341 328 313 310 307 331 34 5 353 351 350 52 209 262 266 292 280 266 269 272 272 289 354 44 74 142 156 156 189 172 172 184 161 165 158 173 171 193 195 185 177 174 165 161 161 153 145 139 132 123 112 124 139 138 147 140 127 119 119 118 112 107 89 45 42 45 72 98 94